Probability
0 0 0 0 0 0 0 0 0 0 0 0 1 1 0 0 0 1 2 7 10 11 11 12 11 8 5 2 0 0 0 0 0 0 0 0 0 0 0 0 0 0 0 0 0 0 0 0 0
0 0 0 0 0 0 0 0 1 1 1 1 2 2 1 0 1 2 4 8 12 14 14 15 15 12 6 2 0 0 0 0 0 0 0 0 0 0 0 0 0 0 0 0 0 0 0 0 0
0 0 0 0 0 0 0 0 2 3 4 5 5 3 2 3 5 6 8 11 15 17 17 19 21 16 9 3 1 0 0 0 0 0 0 0 0 0 0 0 0 0 0 0 0 0 0 0 0
0 0 0 0 0 0 0 0 2 4 7 10 10 7 5 10 17 20 20 20 20 18 19 21 23 19 11 5 2 0 0 0 0 0 0 0 0 0 0 0 0 0 0 0 0 0 0 0 0
0 0 0 0 0 0 0 0 2 7 12 16 17 13 13 23 37 40 34 30 27 22 21 22 24 20 13 6 3 1 0 0 0 0 0 0 0 0 0 0 0 0 0 0 0 0 0 0 0
0 0 0 0 0 0 0 0 4 11 18 23 24 21 23 38 53 51 41 35 31 26 22 21 22 20 15 8 4 1 0 0 0 0 0 0 0 0 0 0 0 0 0 0 0 0 0 0 0
0 0 0 0 0 0 0 1 7 14 20 26 31 28 31 47 58 53 43 34 30 26 22 19 19 17 15 10 5 2 1 0 0 0 0 0 0 0 0 0 0 0 0 0 0 0 0 0 0
0 0 0 0 0 0 0 2 7 13 18 26 34 33 38 53 63 57 46 35 28 24 21 18 17 15 14 11 7 4 2 1 0 0 0 0 0 0 0 0 0 0 0 0 0 0 0 0 0
0 0 0 0 0 0 0 1 6 14 20 28 34 37 46 62 70 65 52 39 30 23 19 18 16 15 14 12 9 5 3 1 0 0 0 0 0 0 0 0 0 0 0 0 0 0 0 0 0
0 0 0 0 0 0 0 1 6 15 23 31 38 45 56 70 77 71 58 44 31 22 17 16 15 14 13 12 10 7 3 1 0 0 0 0 0 0 0 0 0 0 0 0 0 0 0 0 0
0 0 0 0 0 0 0 1 6 14 21 30 41 51 61 72 77 72 61 46 31 20 14 13 13 12 11 12 11 8 4 2 1 0 0 0 0 0 0 0 0 0 0 0 0 0 0 0 0
0 0 0 0 0 0 0 2 7 13 19 30 44 53 61 69 72 69 62 48 33 21 13 10 11 11 10 11 11 9 5 2 1 0 0 0 0 0 0 0 0 0 0 0 0 0 0 0 0
0 0 0 0 0 0 0 3 8 15 26 41 52 54 57 62 64 63 60 51 38 27 18 13 13 14 13 12 12 8 4 1 0 0 0 0 0 0 0 0 0 0 0 0 0 0 0 0 0
0 0 0 0 0 0 0 3 8 18 35 52 59 56 54 55 58 59 58 54 44 36 28 21 19 19 17 13 11 8 4 1 0 0 0 0 0 0 0 0 0 0 0 0 0 0 0 0 0
0 0 0 0 0 0 0 3 8 19 35 50 58 58 56 55 55 57 58 55 50 44 36 29 26 24 19 14 11 9 6 4 2 1 0 0 0 0 0 0 0 0 0 0 0 0 0 0 0
0 0 0 0 0 0 0 2 9 19 30 41 52 60 60 55 52 53 55 55 51 46 39 32 28 25 20 17 13 11 8 5 4 2 0 0 0 0 0 0 0 0 0 0 0 0 0 0 0
0 0 0 0 0 0 0 3 10 20 28 37 49 59 60 55 50 48 50 50 47 42 36 32 29 24 21 19 16 13 9 5 4 3 2 1 0 0 0 0 0 0 0 0 0 0 0 0 0
0 0 0 0 0 0 1 4 11 20 29 38 47 56 59 56 50 46 44 43 41 37 34 32 29 23 20 20 19 16 13 9 6 6 6 4 2 1 0 0 0 0 0 0 0 0 0 0 0
0 0 0 0 0 0 1 5 10 17 28 37 45 52 57 56 51 45 40 38 36 34 32 30 25 20 18 19 19 17 17 13 9 8 9 8 6 3 1 0 0 0 0 0 0 0 0 0 0
0 0 0 0 0 0 2 5 9 13 20 31 40 47 51 53 51 46 41 37 34 31 28 24 20 17 15 16 14 13 13 12 8 7 8 8 8 6 3 1 0 0 0 0 0 0 0 0 0
0 0 0 0 0 0 2 5 7 9 12 21 31 38 44 50 49 44 40 35 29 26 23 19 15 14 13 12 10 8 7 7 6 5 6 6 8 6 3 1 0 0 0 0 0 0 0 0 0
0 0 0 0 0 0 1 2 3 5 7 11 17 25 35 44 44 38 35 31 25 22 20 18 14 12 11 10 9 7 5 4 4 5 5 6 6 5 3 1 1 0 0 0 0 0 0 0 0
0 0 0 0 0 0 0 0 1 2 4 4 7 14 25 34 36 32 29 27 24 22 21 19 15 11 9 8 8 6 5 4 4 4 6 6 5 4 3 3 2 1 0 0 0 0 0 0 0
0 0 0 0 0 0 0 0 0 1 1 2 4 9 15 22 26 27 26 24 21 21 21 18 14 10 8 7 6 5 4 4 4 4 6 6 5 3 3 3 2 1 0 0 0 0 0 0 0
0 0 0 0 0 0 0 0 0 0 0 1 3 5 8 13 18 22 23 19 15 15 16 15 10 7 6 6 6 5 4 4 4 4 6 6 5 3 3 3 2 1 0 0 0 0 0 0 0
0 0 0 0 0 0 0 0 0 1 1 3 4 3 5 9 13 17 18 15 10 10 10 9 7 5 5 6 6 5 4 4 3 4 5 5 3 2 2 2 2 1 0 0 0 0 0 0 0
0 0 0 0 0 0 0 0 1 2 3 5 5 4 6 8 9 11 11 9 8 7 7 7 6 5 6 6 6 5 4 3 3 3 4 4 2 0 1 1 1 0 0 0 0 0 0 0 0
0 0 0 0 0 0 0 0 1 2 4 6 6 7 7 7 8 7 5 4 4 6 8 9 7 7 7 6 6 5 4 3 3 3 2 1 0 0 0 0 0 0 0 0 0 0 0 0 0
0 0 0 0 0 0 0 0 0 1 2 4 6 8 8 8 8 6 2 2 3 5 8 9 8 7 7 6 6 5 4 3 3 3 1 0 0 0 0 0 0 0 0 0 0 0 0 0 0
0 0 0 0 0 0 0 0 0 0 1 2 5 8 8 8 7 5 2 1 2 4 7 9 8 7 6 6 6 5 5 4 3 2 1 0 0 0 0 0 0 0 0 0 0 0 0 0 0
Wind_Speed
6 5 2 0 3 3 3 3 4 5 5 6 9 9 8 5 4 4 4 15 18 16 13 16 18 18 18 18 17 17 16 16 15 15 15 14 14 14 14 14 14 13 13 13 13 13 13 14 14
3 4 1 3 4 2 3 3 5 6 9 10 10 9 7 5 6 9 8 15 18 16 11 14 18 18 19 18 17 17 16 16 15 15 14 14 14 14 14 14 13 13 13 13 13 13 13 13 13
3 2 1 3 1 3 3 2 5 8 11 10 7 5 5 5 8 7 10 18 16 14 11 14 20 19 19 18 17 17 16 16 15 14 14 14 14 14 14 13 13 13 12 12 12 13 12 12 12
1 2 3 2 5 8 7 5 4 8 7 8 9 5 3 2 6 11 18 18 16 13 11 15 20 20 19 18 18 17 16 15 15 15 14 14 13 13 13 13 13 13 12 12 12 12 11 11 11
2 3 3 2 6 6 5 6 8 7 6 8 10 7 2 3 13 20 19 18 17 13 10 14 20 20 19 19 18 17 16 16 15 15 14 14 13 13 13 13 12 12 12 12 11 11 10 10 9
2 3 1 3 6 6 3 4 8 9 9 10 10 8 3 7 16 17 17 16 16 15 12 13 20 20 19 19 18 17 17 16 15 14 14 14 13 13 13 12 12 12 11 11 11 10 9 9 8
3 2 3 4 6 5 3 4 8 9 10 9 11 8 4 9 14 16 16 15 14 14 12 10 11 15 18 19 18 17 17 16 15 14 14 14 13 13 12 12 12 11 11 11 10 9 8 8 7
5 2 3 4 5 4 3 3 6 9 7 9 9 10 8 12 14 15 14 13 13 12 11 10 9 8 9 11 17 17 17 16 15 14 14 14 13 12 12 11 10 11 10 10 9 8 7 6 6
3 1 5 5 4 5 3 2 3 5 8 5 5 6 11 18 18 17 15 11 12 12 10 10 9 8 8 8 13 14 15 15 14 12 14 11 5 5 7 9 10 10 9 9 8 7 6 5 5
5 4 10 8 6 5 4 2 4 4 5 3 5 7 14 18 19 19 18 16 15 15 12 10 11 10 9 9 7 5 6 7 6 4 6 4 4 4 6 8 10 10 9 8 7 6 4 3 2
6 8 10 11 11 7 3 1 2 7 4 7 11 14 16 16 16 17 17 17 17 17 15 12 12 11 9 6 6 4 3 4 4 5 5 4 3 3 3 2 4 4 5 3 3 2 1 1 1
5 10 11 11 9 5 4 2 2 4 7 11 15 18 17 17 16 17 17 16 14 15 14 13 12 11 9 8 7 5 4 4 4 5 5 4 3 3 3 2 2 2 1 2 1 1 2 2 2
7 9 10 9 8 6 3 1 4 3 6 12 15 15 15 15 13 12 13 14 14 14 14 14 13 12 10 8 6 7 6 6 5 4 5 5 4 4 4 3 3 3 2 2 2 2 2 2 2
6 8 10 8 8 5 3 2 3 4 9 14 15 13 13 13 12 12 13 13 14 14 13 12 12 11 11 8 7 6 6 6 5 5 5 6 5 5 4 4 3 3 3 3 3 3 3 2 2
5 8 11 8 5 5 2 3 3 6 10 12 12 12 11 9 10 12 13 13 15 15 13 11 11 10 11 9 8 6 6 6 5 5 5 6 5 6 5 4 3 3 3 3 2 2 2 2 2
6 5 5 10 8 6 3 5 5 6 11 11 10 10 10 8 9 10 11 11 12 13 13 12 12 11 10 8 6 5 5 6 5 5 4 6 6 6 5 4 3 3 2 2 2 2 2 1 2
4 3 6 12 9 5 2 5 5 7 11 10 10 10 10 7 7 8 10 12 13 13 13 12 11 11 10 8 6 5 4 5 5 5 4 5 6 6 5 3 3 3 2 2 2 2 2 2 2
6 6 8 10 8 4 2 5 4 5 9 10 9 9 9 10 9 9 9 11 11 11 11 11 10 9 9 7 6 4 4 3 3 4 5 6 5 6 5 3 3 3 3 2 2 2 2 2 2
8 11 13 14 9 2 2 2 3 4 6 7 6 7 9 8 7 8 8 10 11 10 10 11 11 9 8 7 6 6 4 3 3 4 5 6 6 6 5 4 3 3 3 3 4 3 2 1 2
12 12 12 10 6 1 1 2 0 3 7 9 9 9 10 8 7 8 8 8 10 11 10 10 11 12 10 7 6 5 5 3 3 3 4 5 6 5 5 5 4 3 3 3 3 3 2 1 2
14 10 8 7 4 5 3 4 4 3 0 3 6 7 9 12 12 10 9 9 9 10 11 11 11 11 10 9 6 5 4 3 2 3 3 4 5 5 5 5 4 4 3 3 3 4 4 2 1
12 13 8 4 2 4 2 1 5 4 2 1 2 4 6 8 9 9 9 9 9 9 9 9 10 10 9 9 9 10 7 5 5 4 4 4 5 5 5 5 5 4 3 3 3 3 3 4 1
12 10 5 1 2 2 5 2 6 3 3 3 2 4 6 8 10 10 10 9 8 8 8 8 8 8 8 9 10 9 6 4 4 4 5 4 4 5 5 5 5 4 3 3 3 4 3 3 3
8 2 5 6 6 2 4 1 5 3 3 4 3 3 4 7 8 8 7 6 6 6 7 7 8 8 8 9 9 9 8 7 7 7 6 4 3 3 4 5 5 4 4 4 4 4 4 3 3
2 4 5 5 5 4 3 2 7 6 5 3 3 3 4 6 8 8 8 7 7 7 7 7 8 8 8 9 9 9 9 9 10 8 7 6 4 3 4 5 4 4 4 4 4 4 3 3 3
6 10 8 5 5 4 3 4 7 6 5 2 0 3 5 7 8 9 9 8 7 7 7 8 8 7 8 8 7 7 8 6 6 7 6 6 5 4 5 5 5 5 5 4 4 3 2 2 2
6 6 10 8 3 1 3 4 7 4 4 3 3 3 3 6 7 7 7 6 6 7 7 8 8 7 7 7 7 6 7 7 6 6 6 5 4 5 6 6 5 5 4 4 4 2 2 3 2
9 8 6 6 4 2 3 4 5 5 5 2 1 3 2 4 5 6 6 6 5 5 6 7 8 8 7 7 7 6 6 6 6 6 6 6 5 5 6 6 5 5 4 4 4 2 2 3 2
2 3 5 5 6 7 3 7 7 9 6 4 4 4 5 6 6 6 5 5 5 5 6 6 7 7 7 7 6 6 6 6 6 5 6 6 6 6 6 6 6 5 5 4 3 2 3 3 2
4 4 7 5 3 5 5 6 3 7 5 5 5 6 6 7 7 6 6 5 5 5 5 6 7 7 7 7 6 6 6 6 6 6 6 6 6 6 6 6 5 5 5 4 4 4 3 3 2
Wind_Direction
190 191 182 105 49 33 276 242 137 103 78 72 82 92 96 96 131 145 128 137 136 140 145 146 144 142 138 136 135 132 130 127 124 120 117 116 115 114 113 112 110 108 108 109 110 109 110 110 110
185 191 153 49 62 1 279 207 123 120 125 108 90 93 88 76 93 108 119 139 136 138 141 145 144 142 140 139 138 136 133 131 128 125 122 120 119 117 116 115 113 113 112 112 112 112 111 111 111
200 196 101 68 108 218 258 238 125 113 122 113 98 74 88 113 117 122 139 138 133 136 139 147 144 143 142 141 140 139 136 134 132 129 127 125 123 121 120 118 117 116 116 115 115 113 112 112 112
147 66 49 56 265 247 233 231 147 116 105 103 106 83 52 109 136 133 137 138 135 136 140 147 144 144 143 143 142 141 139 138 135 132 131 129 127 125 123 120 120 120 120 118 117 116 114 113 112
89 81 45 313 276 265 247 191 159 127 121 116 110 113 62 32 117 130 139 141 139 139 142 147 146 145 145 145 145 144 142 140 138 136 134 132 130 128 125 123 123 124 124 123 121 121 119 117 113
57 77 76 281 278 276 250 148 133 113 121 126 120 122 118 126 130 139 143 143 142 143 143 147 148 148 148 148 148 148 146 144 142 141 138 136 134 132 130 128 126 127 128 128 127 127 124 120 114
145 133 218 248 274 275 225 158 133 135 142 150 139 122 130 145 146 143 143 141 142 143 143 145 149 151 152 152 151 150 149 148 147 144 142 141 139 137 135 133 131 131 132 133 134 131 128 126 119
165 118 271 258 264 271 222 166 144 143 145 138 134 141 167 166 148 140 137 138 140 145 149 147 148 149 150 153 154 153 153 152 152 150 148 148 146 144 141 138 139 138 139 140 139 136 132 128 119
149 95 258 245 250 266 240 132 135 124 122 133 144 160 155 146 140 139 137 140 147 153 156 153 151 149 148 152 159 157 157 159 158 157 158 151 140 141 144 150 149 147 147 147 146 144 142 130 115
146 190 237 234 245 262 274 159 149 117 110 106 100 111 132 142 146 149 153 159 160 161 164 162 159 157 157 162 151 152 155 157 153 156 154 142 146 160 160 166 160 157 157 157 160 163 156 123 97
188 215 251 267 265 263 262 218 142 136 158 175 160 151 149 148 152 157 162 167 166 165 165 166 166 165 166 156 154 156 150 153 156 161 159 154 156 166 159 159 163 162 164 160 169 174 159 146 137
246 259 260 268 274 280 259 178 130 162 188 173 160 154 155 157 163 165 166 168 166 164 166 168 171 170 169 160 163 163 159 164 167 174 169 159 158 162 160 166 171 171 168 171 170 189 220 216 179
262 271 278 271 283 280 298 201 156 173 149 142 146 152 159 164 165 165 165 164 165 168 169 173 172 171 165 161 168 169 170 172 172 174 175 165 160 165 167 174 179 189 186 179 185 188 195 184 153
273 293 300 295 295 297 303 277 131 184 142 138 147 158 166 167 160 159 165 165 169 170 170 171 170 169 163 164 168 170 172 169 166 170 174 169 162 162 163 168 178 188 184 177 178 176 168 161 144
314 320 312 299 293 282 41 324 220 174 142 140 153 160 161 163 162 164 169 167 167 168 167 167 167 165 164 166 171 167 166 162 162 167 168 163 158 159 158 159 172 181 173 164 149 143 128 133 125
341 333 305 293 290 279 129 254 251 166 144 145 154 160 161 166 164 161 162 160 163 165 166 170 171 166 163 163 163 157 157 157 159 161 162 160 157 153 149 152 171 174 156 144 138 126 110 112 121
343 300 287 294 290 274 159 225 230 176 157 156 160 163 161 159 163 162 160 159 165 167 165 167 168 166 163 155 148 143 144 153 154 155 154 156 151 146 142 152 166 157 135 135 146 122 134 138 140
264 280 288 285 288 282 224 213 208 175 157 156 159 161 161 167 176 166 160 161 162 165 164 165 160 162 158 149 139 132 131 141 148 152 154 153 151 145 139 146 153 138 128 128 125 125 120 138 152
258 277 282 280 274 284 220 183 178 166 151 152 163 164 164 168 167 159 160 158 158 163 163 162 159 162 160 156 152 152 156 157 157 160 158 153 152 148 140 140 139 136 143 152 146 125 114 94 109
264 273 277 285 299 30 85 49 193 171 172 172 174 175 169 160 157 161 162 162 163 166 165 166 166 167 169 164 159 155 152 160 163 162 157 158 156 153 151 146 146 147 139 137 134 123 118 87 114
266 256 258 269 318 13 65 7 331 320 2 162 164 167 169 170 169 171 172 171 166 168 172 175 173 169 167 157 143 133 118 113 131 153 164 172 162 155 148 149 144 146 146 152 152 139 134 134 71
260 256 253 275 357 323 46 235 285 294 338 130 173 171 178 176 171 172 173 173 175 176 172 173 172 170 166 158 157 157 159 168 179 172 170 171 164 155 150 148 145 148 148 153 158 144 139 134 128
245 253 252 275 91 25 5 106 281 325 314 298 257 195 179 181 179 177 177 175 173 171 172 171 168 168 167 165 164 164 165 168 156 152 158 164 162 157 153 147 142 144 146 151 144 131 127 132 142
252 295 22 46 66 23 283 180 277 268 256 297 288 210 180 179 176 173 166 157 160 163 165 165 167 171 170 169 167 167 167 163 156 161 165 167 162 158 160 148 142 143 143 149 145 137 133 131 130
253 92 28 358 7 262 268 189 247 258 260 251 243 199 190 177 165 162 162 162 163 163 164 163 167 171 171 170 172 172 172 168 169 170 169 165 163 165 174 154 150 146 150 153 142 131 135 142 138
214 144 158 194 223 260 298 233 258 271 284 298 147 161 166 172 170 168 169 165 165 167 168 165 169 170 169 170 171 169 167 165 170 171 166 168 171 173 169 159 156 155 154 152 140 131 148 149 150
189 187 172 145 165 161 271 283 296 298 333 4 49 92 162 174 169 163 160 160 165 167 172 171 167 166 167 165 159 159 162 164 167 166 163 162 163 168 164 158 153 154 154 151 143 143 157 150 157
176 169 107 121 153 214 265 249 242 251 243 225 139 153 170 151 149 151 155 156 158 158 160 165 167 168 166 160 161 160 160 164 163 159 160 160 165 159 154 157 156 155 156 153 146 144 154 149 162
155 137 126 132 151 151 204 257 222 209 208 186 190 177 162 152 147 150 156 150 145 142 148 152 156 154 155 157 155 152 157 158 154 158 162 158 156 153 158 161 160 162 161 156 152 164 156 162 173
151 163 139 145 213 161 164 255 251 189 184 177 187 179 157 154 150 145 148 143 142 145 150 155 157 154 156 155 149 150 149 149 148 152 153 148 146 155 160 157 160 168 168 167 169 185 178 175 184